Temp_Advection
nan nan nan nan nan nan nan nan nan nan nan nan nan nan nan nan nan nan nan nan nan nan
nan -1 -1 0 2 1 0 1 2 2 1 -0 1 2 0 -0 -0 0 0 1 1 nan
nan -0 -1 -1 0 1 1 0 0 0 -0 1 2 1 0 1 -0 1 1 1 1 nan
nan -0 -1 -0 -0 -0 0 0 0 0 1 1 2 1 1 1 0 1 1 1 1 nan
nan 0 -0 -1 -0 0 -0 -0 0 1 1 2 2 2 1 1 1 1 1 2 2 nan
nan 0 -0 -0 -0 -0 0 0 2 2 2 3 2 1 1 2 1 1 1 1 1 nan
nan 1 -0 -0 0 -0 -0 2 2 2 3 2 2 1 1 1 1 0 0 0 0 nan
nan 0 -0 -0 -0 0 1 1 1 1 2 1 1 1 0 0 0 0 0 0 0 nan
nan 1 0 0 0 0 0 0 0 1 0 0 0 0 0 0 0 0 1 1 1 nan
nan 0 0 0 0 0 0 0 -0 0 0 0 0 0 0 0 0 1 1 0 0 nan
nan 0 0 0 0 0 0 0 0 0 0 0 0 0 0 0 0 0 0 0 1 nan
nan 0 0 0 0 0 0 0 0 0 0 0 0 0 0 1 1 0 0 0 1 nan
nan 0 0 0 0 0 0 0 0 0 0 0 0 0 0 0 0 0 0 0 0 nan
nan nan nan nan nan nan nan nan nan nan nan nan nan nan nan nan nan nan nan nan nan nan
Wind_Speed
26 30 33 37 39 41 42 44 49 49 48 46 42 38 33 31 34 33 35 35 39 41
23 29 33 33 37 41 40 41 44 41 36 30 26 31 30 35 37 38 32 31 29 30
20 21 28 32 35 37 36 31 30 36 33 34 33 35 32 36 37 35 32 26 26 25
19 18 19 23 28 33 31 28 23 31 29 32 33 33 34 34 33 35 31 31 32 31
21 18 18 22 25 25 27 32 24 28 32 35 35 35 33 30 30 30 31 32 32 30
18 17 16 20 25 28 30 33 32 32 31 37 37 32 28 25 24 25 23 24 24 24
16 14 15 16 21 23 26 30 30 34 37 37 34 27 25 24 22 22 19 19 19 22
14 10 11 13 14 15 19 19 26 28 29 26 23 21 19 19 20 17 19 19 19 19
13 12 9 10 10 10 11 13 17 23 23 19 18 18 16 17 17 16 17 18 16 17
12 8 7 5 6 6 7 11 18 19 16 15 16 15 15 16 14 16 15 15 15 17
6 5 4 4 5 5 8 14 17 15 13 11 11 13 12 12 13 12 13 14 13 13
6 6 7 6 5 6 9 10 9 9 8 9 11 11 12 12 15 16 15 13 13 10
6 8 6 8 9 10 11 10 9 10 9 9 10 11 10 11 13 15 17 16 14 12
8 8 9 10 10 11 12 13 12 11 11 11 11 10 11 11 13 14 16 15 16 15
Wind_Direction
282 280 271 267 265 264 258 253 240 232 232 232 230 223 229 221 235 229 223 222 221 221
287 283 273 268 266 261 258 251 240 235 234 231 230 241 224 227 226 226 224 224 221 219
288 279 278 270 265 263 260 253 247 243 240 242 247 230 230 230 223 214 212 222 230 223
304 295 281 278 274 261 253 242 242 239 230 242 236 228 223 218 226 235 225 217 229 234
301 309 290 277 268 259 263 246 234 235 231 233 225 218 210 221 216 227 232 231 223 215
312 319 302 284 273 267 254 239 226 231 230 219 211 207 206 216 218 213 213 208 198 198
295 311 305 294 281 267 253 248 235 221 213 203 199 194 220 210 209 213 219 211 203 213
293 304 299 298 290 289 265 257 241 227 196 184 189 208 213 204 203 206 209 216 225 233
281 292 289 287 291 284 265 249 213 193 187 199 209 208 203 209 207 212 221 212 194 185
301 262 255 264 277 256 229 203 188 200 206 203 201 208 205 204 202 202 198 197 186 176
272 237 232 221 220 218 203 195 197 204 214 218 219 218 206 197 187 177 167 167 175 197
260 221 228 218 209 211 216 216 223 228 227 210 206 209 203 193 179 175 185 189 179 189
247 219 219 229 216 215 212 215 220 226 221 213 207 203 200 204 204 191 182 179 184 187
248 246 249 253 254 246 231 217 210 208 208 204 206 207 207 209 202 199 189 181 176 181
Height
1431 1429 1428 1427 1428 1429 1430 1433 1436 1438 1441 1446 1451 1452 1456 1459 1474 1477 1475 1478 1476 1477
1425 1423 1423 1423 1423 1421 1422 1424 1428 1433 1436 1441 1442 1448 1447 1460 1463 1469 1471 1476 1473 1474
1421 1419 1416 1415 1414 1416 1418 1420 1421 1426 1428 1438 1439 1443 1447 1458 1460 1460 1463 1465 1471 1472
1413 1412 1411 1410 1410 1411 1411 1412 1414 1418 1420 1429 1431 1436 1440 1452 1457 1455 1455 1455 1464 1469
1407 1406 1407 1406 1405 1406 1409 1408 1408 1412 1413 1417 1424 1428 1438 1443 1449 1451 1452 1452 1454 1462
1401 1402 1403 1403 1403 1403 1403 1402 1402 1405 1406 1408 1416 1424 1429 1438 1441 1446 1450 1450 1453 1458
1395 1397 1400 1400 1401 1399 1400 1398 1399 1400 1401 1403 1412 1418 1428 1431 1433 1441 1446 1449 1449 1457
1392 1392 1396 1399 1399 1396 1397 1395 1398 1401 1402 1407 1412 1417 1423 1427 1430 1437 1442 1445 1445 1451
1389 1392 1395 1397 1398 1398 1398 1398 1400 1406 1406 1409 1412 1418 1422 1426 1428 1433 1441 1444 1441 1446
1389 1393 1395 1396 1398 1399 1399 1401 1404 1409 1410 1412 1415 1418 1421 1425 1427 1433 1435 1438 1441 1445
1389 1394 1395 1396 1397 1400 1402 1404 1407 1410 1411 1412 1415 1418 1420 1422 1424 1428 1432 1437 1443 1448
1388 1393 1396 1397 1399 1401 1404 1406 1408 1410 1411 1413 1417 1420 1421 1423 1425 1427 1432 1436 1443 1450
1389 1393 1396 1398 1400 1402 1404 1406 1407 1409 1411 1413 1416 1418 1419 1423 1428 1427 1428 1434 1444 1450
1390 1393 1395 1397 1400 1402 1403 1404 1406 1409 1412 1414 1416 1416 1418 1421 1424 1430 1435 1440 1444 1448